ATLAS 5 CENTAUR DEB, 44107

Orbit data source: Space-Track

ATLAS 5 CENTAUR DEB, 44107 is space debris in HEO originally from a launch on Wed, 17 Sep 2014 UTC launched from the Air Force Eastern Test Range (AFETR). Debris objects in space refer to the collection of defunct objects orbiting the Earth. Examples of debris include non-operational satellites, rocket bodies, and fragments generated from explosions, collisions, or faulty payload assembly.

Loading next visibility...
Identifier
44107, 2014-055CC
Orbit
HEO
Country
Flag of USUS
Related business
Flag of USUnited Launch Alliance/Lockheed Martin (US)
Manufacturer
Unknown
Mission
Spacecraft
Bus & Motor
Unknown
Mass
Unknown
Launch date (UTC)
2014-09-17 (11 years ago)
Launch vehicle
Unknown
Launch site
Air Force Eastern Test Range (AFETR)
Object type
Payload
Rocket body
Debris
Shape & HBR
Unknown shape, 1.1 m
Radar Cross Section
RCS unknown

Expand to show TLE details & history
Last TLE update: 3 days ago

TLE from 3 days ago
0 ATLAS 5 CENTAUR DEB
1 44107U 14055CC  26059.46843518 -.00000010  00000-0  00000-0 0  9994
2 44107  19.2083 199.8294 4762436  69.0286 334.5277  1.75843569 44621
Epoch: 2026-02-28T11:14Z
TLE epoch observation values (Epoch: 2026-02-28T11:14:32.799Z)
Latitude
-0.00002°
Longitude
-127.20231°
Altitude
12,811.465 km
Speed
5.272 km/s
True Right ascension
13h 18m 53s
True Declination
0° 00' 00"
Sunlit
Object was in daylight at epoch
Visualization orbit readout
Latitude
Unknown
Longitude
Unknown
Altitude
Unknown
Speed
Unknown
Apparent Right ascension
Unknown
Apparent Declination
Unknown
Sunlit
N/A
Visualization observer readout
Local Sidereal Time
08:16:33
Azimuth
Unknown
Elevation
Unknown
Doppler factor
Unknown
Orbital elements
Apogee altitude
36,427.783 km
Perigee altitude
8,808.974 km
Semi-major axis
28,996.516 km
Eccentricity
0.47624
Inclination
19.2083°
RAAN
199.8294°
Arg. of periapsis
69.0286°
True anomaly
290.83732°
Mean anomaly
334.5277°
Eccentric anomaly
315.35193°
Mean motion
0.43957 °/min
Orbital period
818.99 mins
BSTAR
0
Loading maneuver chart data...
Computing Atmospheric mass density...

Documentation

Showing up to 5 results
|